Home   Weather   Netherlands   Rotterdam   Past weeks
Flag for Netherlands

Past Weather in Rotterdam, Netherlands — Yesterday and Last 2 Weeks

Currently: 34 °F. Snow showers. Broken clouds. (Weather station: Rotterdam Zestienhoven Airport, Netherlands). See more current weather

Past Weather in Rotterdam — Graph

°F

Rotterdam Temperature Yesterday

Maximum temperature yesterday: 48 °F (at 3:25 pm)
Minimum temperature yesterday: 32 °F (at 11:25 pm)
Average temperature yesterday: 40 °F

High & Low Weather Summary for the Past Weeks

 TemperatureHumidityPressure
High73 °F (Mar 31, 3:25 pm)100% (Mar 31, 4:55 am)30.45 "Hg (Mar 31, 4:55 am)
Low32 °F (Apr 6, 7:25 pm)29% (Mar 30, 4:55 pm)29.74 "Hg (Apr 5, 6:55 am)
Average45 °F75%30.14 "Hg
* Reported Mar 28 8:25 am — Apr 12 8:25 am, Rotterdam. Weather by CustomWeather, © 2021

Note: Actual official high and low records may vary slightly from our data, if they occured in-between our weather recording intervals... More about our weather records

Rotterdam Weather History for the Previous 24 Hours

Scroll right to see more
 ConditionsComfort  
Time TempWeatherWind HumidityBarometerVisibility
8:25 am
Mon, Apr 12
34 °FBroken clouds.5 mph93%30.27 "HgN/A
7:55 am34 °FDrizzle. Broken clouds.13 mph93%30.27 "Hg2 mi
7:25 am34 °FBroken clouds.7 mph87%30.24 "HgN/A
6:55 am32 °FClear.2 mph93%30.24 "HgN/A
6:25 am32 °FChilly.3 mph93%30.24 "HgN/A
5:55 am32 °FClear.6 mph93%30.24 "HgN/A
5:25 am32 °FClear.2 mph93%30.24 "HgN/A
4:55 am32 °FChilly.3 mph93%30.21 "HgN/A
4:25 am34 °FChilly.1 mph93%30.21 "HgN/A
3:55 am34 °FPartly cloudy.2 mph93%30.21 "HgN/A
3:25 am36 °FRain. Passing clouds.6 mph87%30.21 "HgN/A
2:55 am32 °FChilly.5 mph93%30.21 "HgN/A
2:25 am34 °FPassing clouds.6 mph87%30.21 "HgN/A
1:55 am34 °FChilly.5 mph87%30.18 "HgN/A
1:25 am34 °FChilly.6 mph87%30.18 "HgN/A
12:55 am34 °FPassing clouds.7 mph87%30.18 "HgN/A
12:25 am36 °FPassing clouds.8 mph81%30.18 "HgN/A
11:55 pm
Sun, Apr 11
36 °FPassing clouds.6 mph81%30.15 "HgN/A
11:25 pm32 °FPassing clouds.5 mph87%30.15 "HgN/A
10:55 pm36 °FChilly.3 mph87%30.15 "HgN/A
10:25 pm36 °FChilly.3 mph87%30.15 "HgN/A
9:55 pm36 °FChilly.3 mph87%30.12 "HgN/A
9:25 pm39 °FChilly.5 mph75%30.12 "HgN/A
8:55 pm39 °FPassing clouds.6 mph75%30.12 "HgN/A
8:25 pm41 °FQuite cool.8 mph66%30.09 "HgN/A
7:55 pm41 °FQuite cool.9 mph66%30.09 "HgN/A
7:25 pm43 °FPassing clouds.8 mph66%30.07 "HgN/A
6:55 pm43 °FPassing clouds.12 mph66%30.07 "HgN/A
6:25 pm43 °FScattered clouds.12 mph66%30.07 "HgN/A
5:55 pm43 °FScattered clouds.12 mph61%30.04 "HgN/A
5:25 pm46 °FPartly sunny.13 mph62%30.04 "HgN/A
4:55 pm45 °FPassing clouds.12 mph57%30.04 "HgN/A
4:25 pm43 °FScattered clouds.14 mph61%30.01 "HgN/A
3:55 pm46 °FScattered clouds.13 mph53%30.01 "HgN/A
3:25 pm48 °FPartly sunny.14 mph62%30.01 "HgN/A
2:55 pm45 °FPartly sunny.12 mph57%30.01 "HgN/A
2:25 pm45 °FPartly sunny.12 mph61%29.98 "HgN/A
1:55 pm46 °FPassing clouds.13 mph57%29.98 "HgN/A
1:25 pm45 °FBroken clouds.13 mph66%29.98 "HgN/A
12:55 pm45 °FScattered clouds.16 mph66%29.95 "HgN/A
12:25 pm45 °FPassing clouds.15 mph66%29.95 "HgN/A
11:55 am45 °FScattered clouds.16 mph66%29.95 "HgN/A
11:25 am43 °FCloudy.16 mph66%29.95 "HgN/A
10:55 am43 °FScattered clouds.16 mph66%29.92 "HgN/A
10:25 am41 °FPartly sunny.16 mph70%29.92 "HgN/A
9:55 am43 °FPartly sunny.14 mph71%29.89 "HgN/A
9:25 am41 °FBroken clouds.13 mph76%29.89 "HgN/A
Weather by CustomWeather, © 2021

See weather overview